Weather History for Newberry, SC

Change the Weather History Date:

Wednesday, November 14, 2012

  Actual Average (KFDW) Record (KFDW)
Temperature  
Mean Temperature 46 °F -  
Max Temperature 55 °F 62 °F 78 °F (2011)
Min Temperature 37 °F 37 °F 28 °F (2013)
Degree Days  
Heating Degree Days 19    
Moisture  
Dew Point 33 °F    
Average Humidity 63    
Maximum Humidity 93    
Minimum Humidity 38    
Precipitation  
Precipitation 0.00 in - - ()
Sea Level Pressure  
Sea Level Pressure 30.39 in    
Wind  
Wind Speed 10 mph (NE)    
Max Wind Speed 16 mph    
Max Gust Speed 23 mph    
Visibility 10 miles    
Events      
Averages and records for this station are not official NWS values.
T = Trace of Precipitation, MM = Missing Value Source: NWS Daily Summary

Daily Weather History Graph

Daily Weather History Graph

Search for Another Location

Airport:

Trip Planner

Search our weather history database for the weather conditions in past years. The results will help you decide how hot, cold, wet, or windy it might be!

Date:

Astronomy

Nov. 14, 2012 Rise Set
Actual Time 6:59 AM EST 5:22 PM EST
Civil Twilight 6:32 AM EST 5:49 PM EST
Nautical Twilight 6:02 AM EST 6:19 PM EST
Astronomical Twilight 5:32 AM EST 6:49 PM EST
Moon 7:44 AM EST (11/14) 6:12 PM EST (11/14)
Length of Visible Light 11h 16m
Length of Day
10h 23m
New Moon, 1% of the Moon is Illuminated
Nov 14
New Moon
Nov 20
First Quarter
Nov 28
Full
Dec 6
Last Quarter
Dec 13
New

Hourly Weather History & Observations

Time (EST) Temp. Windchill Dew Point Humidity Pressure Visibility Wind Dir Wind Speed Gust Speed Precip Events Conditions
12:15 AM 42.8 °F 38.0 °F 37.4 °F 81% 30.39 in 10.0 mi NE 8.1 mph - N/A   Clear
12:35 AM 42.8 °F 37.0 °F 37.4 °F 81% 30.38 in 10.0 mi NE 10.4 mph - N/A   Clear
12:55 AM 41.0 °F 35.2 °F 37.4 °F 87% 30.39 in 10.0 mi NE 9.2 mph - N/A   Clear
1:15 AM 41.0 °F 35.2 °F 35.6 °F 81% 30.38 in 10.0 mi NE 9.2 mph - N/A   Clear
1:35 AM 41.0 °F 36.4 °F 35.6 °F 81% 30.38 in 10.0 mi NE 6.9 mph - N/A   Scattered Clouds
1:55 AM 39.2 °F 33.0 °F 35.6 °F 87% 30.39 in 10.0 mi NE 9.2 mph - N/A   Scattered Clouds
2:15 AM 41.0 °F 35.2 °F 35.6 °F 81% 30.38 in 10.0 mi NE 9.2 mph - N/A   Clear
2:35 AM 39.2 °F 32.5 °F 35.6 °F 87% 30.39 in 10.0 mi NNE 10.4 mph - N/A   Scattered Clouds
2:55 AM 41.0 °F 35.2 °F 35.6 °F 81% 30.39 in 10.0 mi NE 9.2 mph - N/A   Mostly Cloudy
3:15 AM 41.0 °F 35.2 °F 35.6 °F 81% 30.39 in 10.0 mi NNE 9.2 mph - N/A   Overcast
3:35 AM 39.2 °F 31.6 °F 35.6 °F 87% 30.39 in 10.0 mi NNE 12.7 mph - N/A   Scattered Clouds
3:55 AM 39.2 °F 32.0 °F 35.6 °F 87% 30.39 in 10.0 mi NNE 11.5 mph - N/A   Clear
4:15 AM 39.2 °F 32.5 °F 35.6 °F 87% 30.39 in 10.0 mi NNE 10.4 mph - N/A   Clear
4:35 AM 37.4 °F 29.3 °F 35.6 °F 93% 30.39 in 10.0 mi NE 12.7 mph - N/A   Scattered Clouds
4:55 AM 39.2 °F 31.6 °F 35.6 °F 87% 30.39 in 10.0 mi NE 12.7 mph - N/A   Clear
5:15 AM 39.2 °F 32.5 °F 35.6 °F 87% 30.41 in 10.0 mi NE 10.4 mph - N/A   Clear
5:35 AM 37.4 °F 30.8 °F 35.6 °F 93% 30.41 in 10.0 mi NE 9.2 mph - N/A   Clear
5:55 AM 39.2 °F 32.0 °F 35.6 °F 87% 30.42 in 10.0 mi NNE 11.5 mph - N/A   Scattered Clouds
6:15 AM 39.2 °F 32.0 °F 35.6 °F 87% 30.42 in 10.0 mi NNE 11.5 mph - N/A   Overcast
6:35 AM 39.2 °F 32.5 °F 35.6 °F 87% 30.44 in 10.0 mi NNE 10.4 mph - N/A   Overcast
6:55 AM 39.2 °F 31.6 °F 35.6 °F 87% 30.43 in 10.0 mi NNE 12.7 mph 17.3 mph N/A   Overcast
7:15 AM 39.2 °F 31.6 °F 33.8 °F 81% 30.44 in 10.0 mi NNE 12.7 mph 18.4 mph N/A   Overcast
7:35 AM 39.2 °F 31.6 °F 33.8 °F 81% 30.44 in 10.0 mi NNE 12.7 mph 17.3 mph N/A   Overcast
7:55 AM 41.0 °F 34.3 °F 33.8 °F 76% 30.45 in 10.0 mi NNE 11.5 mph 17.3 mph N/A   Overcast
8:15 AM 41.0 °F 34.7 °F 33.8 °F 76% 30.46 in 10.0 mi NNE 10.4 mph 18.4 mph N/A   Overcast
8:35 AM 41.0 °F 32.8 °F 33.8 °F 76% 30.46 in 10.0 mi NNE 16.1 mph 20.7 mph N/A   Overcast
8:55 AM 41.0 °F 33.5 °F 32.0 °F 70% 30.47 in 10.0 mi NE 13.8 mph 19.6 mph N/A   Overcast
9:15 AM 41.0 °F 33.5 °F 32.0 °F 70% 30.47 in 10.0 mi NNE 13.8 mph 23.0 mph N/A   Overcast
9:35 AM 42.8 °F 35.4 °F 32.0 °F 66% 30.47 in 10.0 mi NNE 15.0 mph - N/A   Overcast
9:55 AM 44.6 °F 37.8 °F 32.0 °F 61% 30.46 in 10.0 mi NNE 15.0 mph - N/A   Overcast
10:15 AM 44.6 °F 38.4 °F 32.0 °F 61% 30.46 in 10.0 mi NE 12.7 mph 20.7 mph N/A   Overcast
10:35 AM 44.6 °F 37.8 °F 32.0 °F 61% 30.46 in 10.0 mi NE 15.0 mph - N/A   Overcast
10:55 AM 48.2 °F - 32.0 °F 54% 30.47 in 10.0 mi NE 10.4 mph - N/A   Overcast
11:15 AM 48.2 °F - 32.0 °F 54% 30.45 in 10.0 mi NE 13.8 mph 18.4 mph N/A   Overcast
11:35 AM 48.2 °F - 32.0 °F 54% 30.45 in 10.0 mi NE 12.7 mph - N/A   Mostly Cloudy
11:55 AM 50.0 °F - 32.0 °F 50% 30.43 in 10.0 mi NE 12.7 mph - N/A   Scattered Clouds
12:15 PM 51.8 °F - 32.0 °F 47% 30.41 in 10.0 mi NE 10.4 mph 18.4 mph N/A   Clear
12:35 PM 51.8 °F - 32.0 °F 47% 30.40 in 10.0 mi NNE 16.1 mph - N/A   Clear
12:55 PM 51.8 °F - 32.0 °F 47% 30.39 in 10.0 mi NE 10.4 mph 16.1 mph N/A   Scattered Clouds
1:15 PM 53.6 °F - 32.0 °F 44% 30.39 in 10.0 mi NNE 11.5 mph - N/A   Mostly Cloudy
1:35 PM 53.6 °F - 30.2 °F 41% 30.38 in 10.0 mi ENE 6.9 mph - N/A   Scattered Clouds
1:55 PM 53.6 °F - 32.0 °F 44% 30.37 in 10.0 mi NE 9.2 mph - N/A   Mostly Cloudy
2:15 PM 53.6 °F - 30.2 °F 41% 30.36 in 10.0 mi East 8.1 mph - N/A   Overcast
2:35 PM 55.4 °F - 30.2 °F 38% 30.35 in 10.0 mi ENE 9.2 mph - N/A   Scattered Clouds
2:55 PM 53.6 °F - 32.0 °F 44% 30.35 in 10.0 mi NE 10.4 mph - N/A   Scattered Clouds
3:15 PM 53.6 °F - 32.0 °F 44% 30.35 in 10.0 mi ENE 9.2 mph - N/A   Mostly Cloudy
3:35 PM 53.6 °F - 32.0 °F 44% 30.34 in 10.0 mi NE 5.8 mph - N/A   Overcast
3:55 PM 53.6 °F - 32.0 °F 44% 30.34 in 10.0 mi ENE 9.2 mph - N/A   Overcast
4:15 PM 53.6 °F - 32.0 °F 44% 30.35 in 10.0 mi ENE 5.8 mph - N/A   Overcast
4:35 PM 53.6 °F - 32.0 °F 44% 30.35 in 10.0 mi NNE 8.1 mph - N/A   Overcast
4:55 PM 51.8 °F - 32.0 °F 47% 30.35 in 10.0 mi NNE 9.2 mph - N/A   Overcast
5:15 PM 51.8 °F - 32.0 °F 47% 30.35 in 10.0 mi NE 6.9 mph - N/A   Overcast
5:35 PM 51.8 °F - 32.0 °F 47% 30.33 in 10.0 mi NE 9.2 mph - N/A   Overcast
5:55 PM 51.8 °F - 32.0 °F 47% 30.35 in 10.0 mi ENE 9.2 mph - N/A   Overcast
6:15 PM 51.8 °F - 32.0 °F 47% 30.36 in 10.0 mi NE 5.8 mph - N/A   Overcast
6:35 PM 51.8 °F - 32.0 °F 47% 30.38 in 10.0 mi ENE 5.8 mph - N/A   Overcast
6:55 PM 51.8 °F - 32.0 °F 47% 30.37 in 10.0 mi ENE 9.2 mph - N/A   Overcast
7:15 PM 51.8 °F - 32.0 °F 47% 30.38 in 10.0 mi NE 8.1 mph - N/A   Overcast
7:35 PM 50.0 °F - 32.0 °F 50% 30.38 in 10.0 mi NE 4.6 mph - N/A   Overcast
7:55 PM 50.0 °F - 32.0 °F 50% 30.38 in 10.0 mi ENE 9.2 mph - N/A   Overcast
8:15 PM 50.0 °F - 32.0 °F 50% 30.38 in 10.0 mi ENE 5.8 mph - N/A   Overcast
8:35 PM 50.0 °F - 32.0 °F 50% 30.36 in 10.0 mi ENE 9.2 mph - N/A   Overcast
8:55 PM 50.0 °F - 32.0 °F 50% 30.37 in 10.0 mi NE 10.4 mph - N/A   Overcast
9:35 PM 50.0 °F - 32.0 °F 50% 30.36 in 10.0 mi NE 10.4 mph 16.1 mph N/A   Overcast
9:55 PM 50.0 °F - 32.0 °F 50% 30.36 in 10.0 mi NE 6.9 mph - N/A   Overcast
10:15 PM 50.0 °F - 32.0 °F 50% 30.36 in 10.0 mi NNE 10.4 mph - N/A   Overcast
10:35 PM 48.2 °F - 32.0 °F 54% 30.34 in 10.0 mi NE 11.5 mph 17.3 mph N/A   Overcast
10:55 PM 48.2 °F - 32.0 °F 54% 30.33 in 10.0 mi NE 10.4 mph - N/A   Overcast
11:15 PM 48.2 °F - 32.0 °F 54% 30.32 in 10.0 mi NE 10.4 mph 16.1 mph N/A   Light Drizzle
11:35 PM 46.4 °F 41.5 °F 33.8 °F 62% 30.32 in 10.0 mi NE 10.4 mph - N/A   Drizzle
11:55 PM 46.4 °F 41.5 °F 33.8 °F 62% 30.32 in 10.0 mi NE 10.4 mph - N/A   Light Drizzle